Location: Exeidioux
(45.6312°N, 1.6819°E)
Time: 14:21:39
(UTC+00:00)

COSMOS 2428 - Pass Details

Date: 03 March 2021
Orbit: 845 x 858 km, 70.9° (Epoch: 16 April)

Event Time Altitude Azimuth Distance (km) Brightness Sun altitude
Rises 19:16:10 0° 176° (S) 3,390 5.7 -17.0°
Reaches altitude 10° 19:18:48 10° 168° (SSE) 2,460 4.9 -17.5°
Maximum altitude 19:23:48 34° 105° (ESE) 1,377 3.2 -18.4°
Enters shadow 19:24:45 32° 85° (E) 1,432 3.3 -18.5°
